Tracking 28126 objects as of 1-Oct-2023
HD Live streaming from Space Station
objects crossing your sky now

COSMOS 839 DEB

Track COSMOS 839 DEB now!
10-day predictions


NORAD ID: 10454
Int'l Code: 1976-067AF
Perigee: 871.4 km
Apogee: 2,032.9 km
Inclination: 65.7 °
Period: 114.8 minutes
Semi major axis: 7823 km
RCS: 0.1521 m2 (medium)
Launch date: July 8, 1976
Source: Commonwealth of Independent States (former USSR) (CIS)
Launch site: PLESETSK MISSILE AND SPACE COMPLEX (PKMTR)

Note: This is SATELLITE DEBRIS
Your satellite tracking list
Your tracking list is empty




NASA's NSSDC Master Catalog

Two Line Element Set (TLE):
1 10454U 76067AF  23272.81701585  .00000574  00000-0  13944-2 0  9990
2 10454  65.6661 348.4977 0742327 227.0133 126.6316 12.54677816157770
Source of the keplerian elements: AFSPC